DMSP 5D-2 F8 DEB

Satellite information

Favourite Embed

Satellite Type and Status

DEBRISIN ORBIT

Key statistics

Satellite DMSP 5D-2 F8 DEB at a glance.

Uptime

13952

Days in orbit

Revolutions

≈ 14.2

Per day

Orbit

SSO

Sun Synchronous Orbit

Inclination

98.7

Latest

Satellite identification and parameters

Extended collection of information and parameters for DMSP 5D-2 F8 DEB.

Object identification

Identified? True

Debris? True

Object name: DMSP 5D-2 F8 DEB

International designator: 1987-053K

Object number (NORAD): 60252

Object ID (CCSDS): 60252

Country: UNITED STATES OF AMERICA (US)

Current information (Y/N): Y

RCS size: MEDIUM

Orbital parameters

Period: 101.148 minutes

Inclination: 98.7299 deg

SMA: 7191.142 km

Apoapsis: 826.552 km

Periapsis: 799.461 km

RAAN: 69.8374 deg

Eccentricy: 0.00188364

Argument of periapsis: 254.6075 deg

Mean anomaly: 105.3023 deg

Mean motion: 14.23659086 rev/day

Mean motion (dot): 0.00002114 rev/day2

B* drag term: 0.0009442678 1/REarth

Two-line elements (TLE)

Creation date: Aug. 31, 2025, 2:26 a.m.

Reference frame: TEME

Reference center: EARTH

Epoch: Aug. 30, 2025, 6:51 p.m. UTC

TLE line 0: 0 DMSP 5D-2 F8 DEB

TLE line 1: 1 60252U 87053K 25242.78554640 .00002114 00000-0 94427-3 0 9999

TLE line 2: 2 60252 98.7299 69.8374 0018836 254.6075 105.3023 14.23659086 57799

Live tracking on map

Real-time ground track for satellite DMSP 5D-2 F8 DEB.

In-orbit conjunctions

A list of the most updated potential collisions computed for object DMSP 5D-2 F8 DEB.

Target Orbit TCA Probability of collision Miss distance Type
CZ-6A DEB SSO 2025-06-22 03:42:51 0.0001297679 187.0 (m) DEBRIS
ARGOS SSO 2025-03-25 19:28:13 0.0006996953 117.0 (m) PAYLOAD
FENGYUN 1C DEB SSO 2024-10-05 00:00:31 0.0001699726 123.0 (m) DEBRIS
FENGYUN 1C DEB SSO 2024-08-31 21:01:52 0.0002228225 575.0 (m) DEBRIS
METEOR 1-17 DEB LEO 2024-08-13 12:19:19 0.0009408849 155.0 (m) DEBRIS

Associated space launch

Military meteorological satellite

DMSP 5D-2 F8 DEB was lifted into orbit during the mission ‘Atlas E | DMSP-5D2 F8’, on board a Atlas E space rocket.

The launch took place on June 20, 1987, 2:34 a.m. from Space Launch Complex 3W.

For more information about the launch, click the button.

Launch to space Atlas E | DMSP-5D2 F8
Atlas E | DMSP-5D2 F8

Agency: N/A

Status: Launch Successful

Launch date: June 20, 1987, 2:34 a.m. UTC

Rocket: Atlas E

Launch pad: Space Launch Complex 3W

Location: Vandenberg SFB, CA, USA

...

Latest news about this satellite

There are no fresh news available about this satellite. Check back as we update our databases every day.


Newsletter sign-up

Weekly statistics, charts and insights to help you stay on top of the space industry.